Home   Weather   East Hants   Past weeks

Flag for Canada Past Weather in East Hants, Nova Scotia, Canada — Yesterday and Last 2 Weeks

Now
57 °F

Cool.


Feels Like: 53 °F
Forecast: 50 / 55 °F
Wind: 17 mph from South

Location: Halifax International Airport

Current Time: Apr 27, 2017 at 12:10:05 pm

Latest Report: Apr 27, 2017 at 11:00 am


Visibility: 2 mi

Pressure: 30.15 "Hg

Humidity: 100%

Dew Point: 57 °F

Location of East HantsLocation

Past Weather in East Hants — Graph

°F

East Hants Temperature Yesterday

Maximum temperature yesterday: 52 °F (at 2:00 pm)
Minimum temperature yesterday: 39 °F (at 12:00 am)
Average temperature yesterday: 46 °F

High & Low Weather Summary for the Past Weeks

 TemperatureHumidityPressure
High63 °F (Apr 16, 5:00 pm)100% (Apr 12, 7:00 pm)30.66 "Hg (Apr 12, 7:00 pm)
Low18 °F (Apr 19, 7:00 am)25% (Apr 15, 4:00 pm)29.55 "Hg (Apr 17, 3:50 am)
Average41 °F77%30.15 "Hg
* Reported Apr 12 10:00 am — Apr 27 10:44 am, East Hants, Weather by CustomWeather, © 2017

Note: Actual official high and low records may vary slightly from our data, if they occured in-between our weather recording intervals... More about our weather records

Advertising

East Hants Weather History for the Previous 24 Hours

Scroll right to see more
 ConditionsComfort  
Time TempWeatherWind HumidityBarometerVisibility
10:44 am
Thu, Apr 27
57 °FLight rain. Fog.12 mph100%30.15 "Hg1 mi
10:37 am57 °FLight rain. Fog.13 mph100%30.15 "Hg2 mi
10:00 am57 °FLight rain. Fog.13 mph100%30.15 "Hg2 mi
9:25 am57 °FLight rain. Fog.14 mph100%30.15 "Hg2 mi
9:19 am57 °FLight rain. Fog.17 mph100%30.15 "Hg1 mi
9:00 am55 °FFog.15 mph100%30.15 "Hg1 mi
8:38 am55 °FFog.14 mph100%30.15 "Hg1 mi
8:25 am55 °FFog.12 mph100%30.15 "Hg1 mi
7:00 am50 °FFog.10 mph100%30.15 "Hg0 mi
6:00 am50 °FFog.10 mph100%30.15 "Hg0 mi
5:00 am50 °FFog.9 mph100%30.15 "Hg0 mi
4:00 am50 °FFog.10 mph100%30.16 "Hg0 mi
3:00 am50 °FFog.9 mph100%30.16 "Hg0 mi
2:00 am50 °FFog.9 mph100%30.18 "Hg1 mi
1:00 am48 °FFog.12 mph100%30.19 "Hg0 mi
12:00 am48 °FFog.12 mph100%30.19 "Hg1 mi
11:44 pm
Wed, Apr 26
48 °FFog.13 mph100%30.20 "Hg1 mi
11:00 pm48 °FFog.10 mph100%30.21 "Hg1 mi
10:00 pm48 °FFog.10 mph100%30.22 "Hg1 mi
9:00 pm48 °FFog.10 mph100%30.22 "Hg1 mi
8:34 pm48 °FFog.12 mph100%30.21 "Hg1 mi
8:00 pm48 °FFog.13 mph100%30.21 "Hg0 mi
7:00 pm50 °FFog.13 mph100%30.20 "Hg1 mi
6:42 pm50 °FFog.17 mph100%30.20 "Hg1 mi
6:00 pm50 °FFog.13 mph100%30.21 "Hg1 mi
5:12 pm50 °FFog.15 mph100%30.20 "Hg1 mi
4:00 pm52 °FLight rain. Fog.17 mph100%30.23 "Hg2 mi
3:00 pm52 °FLight rain. Fog.15 mph100%30.24 "Hg2 mi
2:35 pm52 °FRain. Fog.13 mph100%30.25 "Hg1 mi
2:00 pm52 °FLight rain. Fog.15 mph100%30.26 "Hg2 mi
1:00 pm50 °FLight rain. Fog.17 mph100%30.28 "Hg1 mi
12:00 pm48 °FLight rain. Fog.16 mph100%30.29 "Hg1 mi
Weather by CustomWeather, © 2017

See weather overviewHow to use our weather pages